Volver al catálogo

IUS R/B(2)

ActivoGEO
NORAD 21807·ROCKET BODY·🇺🇸 United States

Lanzado Nov 24, 1991 desde Cape Canaveral Space Force Station

Loading…

TLE

ActualizadoSource: Space-Track

Época: Sep 14, 2026, 09:42 UTC

1 21807U 91080D   26257.40445115  .00000035  00000-0  00000-0 0  9990
2 21807  13.4217 341.9941 0021115 350.5322   9.4482  1.01278700 26864

Sigue IUS R/B(2) en tiempo real con AllMySat

Download on the App Store